Вернуться в каталог

STARLINK-30990

АктивенСвязьVLEO
NORAD 58478·PAYLOAD·🇺🇸 United States

Запущен Dec 3, 2023 с Cape Canaveral Space Force Station

Loading…

Ближайшие Пролёты (ближайшие 24 часа)

TLE

СвежийSource: CelesTrak SupGP

Эпоха: Sep 14, 2026, 15:02 UTC

1 58478C 23186F   26257.62687500 -.00016906  00000+0 -61242-3 0  2576
2 58478  43.0017  80.1268 0001653 261.2503 352.0594 15.27581179    13

Отслеживайте STARLINK-30990 в реальном времени с AllMySat

Download on the App Store